Regional Weather Roundup
Issued by NWS

Home | Current Version | Previous Version | Text Only | Print | Product List | Glossary On
Versions: 1 2 3 4 5 6 7 8 9 10 11 12 13 14 15 16 17 18 19 20 21 22 23 24 25 26 27 28 29 30 31 32 33 34 35 36 37 38 39 40 41 42 43 44 45 46 47 48 49 50
000
ASUS44 KOUN 300910
RWROK

WEATHER ROUNDUP FOR OKLAHOMA
NATIONAL WEATHER SERVICE NORMAN OK
400 AM CDT TUE AUG 30 2016

NOTE: "FAIR" INDICATES FEW OR NO CLOUDS BELOW 12,000 FEET WITH NO
      SIGNIFICANT WEATHER AND/OR OBSTRUCTIONS TO VISIBILITY.

OKZ001>007-009>012-014-015-017-301000-
NORTHWEST OKLAHOMA AND THE PANHANDLE

CITY           SKY/WX    TMP DP  RH WIND       PRES   REMARKS
GAGE           CLOUDY    69  67  93 CALM      30.18F
GUYMON         CLOUDY    66  64  93 SW5       30.22F
ENID/WOODRING  PTCLDY    72  70  94 NE5       30.10F
$$

OKZ016-021>023-033>039-044-045-301000-
SOUTHWEST OKLAHOMA

CITY           SKY/WX    TMP DP  RH WIND       PRES   REMARKS
LAWTON/REGL    CLEAR     73  70  90 NE5       30.09S
LAWTON/FT SILL CLEAR     72  69  91 N5        30.08S
FREDERICK      PTCLDY    75  69  81 NE7       30.07S
CLINTON        PTCLDY    71  67  87 N5        30.16F
HOBART         CLEAR     72  69  90 NE6       30.13F
ALTUS AFB      PTCLDY    70  66  88 NE6       30.10F
$$

OKZ018>020-024>031-301000-
CENTRAL OKLAHOMA

CITY           SKY/WX    TMP DP  RH WIND       PRES   REMARKS
OKLAHOMA CITY  PTCLDY    73  69  87 E5        30.10F
OKC/WILEY POST MOCLDY    75  70  84 CALM      30.11S
OKC/TINKER AFB CLEAR     71  68  90 SE5       30.10S
STILLWATER     CLEAR     70  68  93 CALM      30.10S
GUTHRIE        CLEAR     73  70  90 CALM      30.10S
$$

OKZ008-013-054>072-301000-
NORTHEAST OKLAHOMA

CITY           SKY/WX    TMP DP  RH WIND       PRES   REMARKS
TULSA          PTCLDY    72  71  97 W3        30.09F
TULSA/JONES    CLEAR     71  71 100 CALM      30.09F FOG
PONCA CITY     CLOUDY    72  68  87 N3        30.10F
BARTLESVILLE   CLEAR     69  68  96 CALM      30.11S
MUSKOGEE       CLEAR     71  69  93 CALM      30.09F
$$

OKZ032-040>043-046>053-073>077-301000-
SOUTH CENTRAL/SOUTHEAST OKLAHOMA

CITY           SKY/WX    TMP DP  RH WIND       PRES   REMARKS
ARDMORE/DWNTWN PTCLDY    73  68  83 CALM      30.07F
MCALESTER      PTCLDY    72  68  87 CALM      30.08F
$$





USA.gov is the U.S. government's official web portal to all federal, state and local government web resources and services.